1998-067XC (62296 NORAD) Tracking and Keplerian Element Data

This shows tracking and keplerian element data for the satellite.

Feedback or suggestion? Click here.




ElementValue
Catalog62296
Name1998-067XC
Epoch Orbit879
Epoch Day34.79675995
Epoch Year2025
RAAN244.9048
Inclination51.6318
Eccentricity0.0013597
Argument of Perigee186.3075
Mean Anonmoly173.775
Mean Motion15.64338014
Decay Rate0.00134336
L11 62296U 98067XC 25034.79675995 .00134336 00000+0 13538-2 0 9997
L22 62296 51.6318 244.9048 0013597 186.3075 173.7750 15.64338014 8796



Live tracking and technical data element details for 1998-067XC (NORAD 62296). 1998-067XC can be tracked NOW for your location showing map with azimuth and elevation plus other details from your city location.







IsCatalogInMostPopularTable: catalog: 62296, numindb: 10
Update: records affected: 1



GetName: 62296 1998-067XC

Hit Count: updated at: Mon, 19 May 2025 02:17:38 GMT